Year,Month,Day,Hour,Minute,Value (Times are PST for temperature in C)
2018,10,20,00,00,8.20
2018,10,20,00,01,8.20
2018,10,20,00,02,8.20
2018,10,20,00,03,8.20
2018,10,20,00,04,8.20
2018,10,20,00,05,8.20
2018,10,20,00,06,8.20
2018,10,20,00,07,8.20
2018,10,20,00,08,8.20
2018,10,20,00,09,8.20
2018,10,20,00,10,8.10
2018,10,20,00,11,8.10
2018,10,20,00,12,8.10
2018,10,20,00,13,8.10
2018,10,20,00,14,8.10
2018,10,20,00,15,8.10
2018,10,20,00,16,8.10
2018,10,20,00,17,8.10
2018,10,20,00,18,8.00
2018,10,20,00,19,8.00
2018,10,20,00,20,8.00
2018,10,20,00,21,8.00
2018,10,20,00,22,8.00
2018,10,20,00,23,8.00
2018,10,20,00,24,8.00
2018,10,20,00,25,8.00
2018,10,20,00,26,7.90
2018,10,20,00,27,7.90
2018,10,20,00,28,7.90
2018,10,20,00,29,7.90
2018,10,20,00,30,7.90
2018,10,20,00,31,7.90
2018,10,20,00,32,7.90
2018,10,20,00,33,7.90
2018,10,20,00,34,7.90
2018,10,20,00,35,7.90
2018,10,20,00,36,7.90
2018,10,20,00,37,7.90
2018,10,20,00,38,7.90
2018,10,20,00,39,7.90
2018,10,20,00,40,7.90
2018,10,20,00,41,7.90
2018,10,20,00,42,7.90
2018,10,20,00,43,7.90
2018,10,20,00,44,7.90
2018,10,20,00,45,7.90
2018,10,20,00,46,7.90
2018,10,20,00,47,7.90
2018,10,20,00,48,7.90
2018,10,20,00,49,7.90
2018,10,20,00,50,7.80
2018,10,20,00,51,7.80
2018,10,20,00,52,7.80
2018,10,20,00,53,7.80
2018,10,20,00,54,7.80
2018,10,20,00,55,7.80
2018,10,20,00,56,7.80
2018,10,20,00,57,7.80
2018,10,20,00,58,7.80
2018,10,20,00,59,7.80
2018,10,20,01,00,7.80
2018,10,20,01,01,7.80
2018,10,20,01,02,7.80
2018,10,20,01,03,7.80
2018,10,20,01,04,7.80
2018,10,20,01,05,7.80
2018,10,20,01,06,7.80
2018,10,20,01,07,7.80
2018,10,20,01,08,7.70
2018,10,20,01,09,7.70
2018,10,20,01,10,7.70
2018,10,20,01,11,7.70
2018,10,20,01,12,7.70
2018,10,20,01,13,7.70
2018,10,20,01,14,7.70
2018,10,20,01,15,7.60
2018,10,20,01,16,7.60
2018,10,20,01,17,7.60
2018,10,20,01,18,7.60
2018,10,20,01,19,7.60
2018,10,20,01,20,7.60
2018,10,20,01,21,7.60
2018,10,20,01,22,7.60
2018,10,20,01,23,7.60
2018,10,20,01,24,7.60
2018,10,20,01,25,7.60
2018,10,20,01,26,7.60
2018,10,20,01,27,7.60
2018,10,20,01,28,7.60
2018,10,20,01,29,7.60
2018,10,20,01,30,7.60
2018,10,20,01,31,7.60
2018,10,20,01,32,7.60
2018,10,20,01,33,7.60
2018,10,20,01,34,7.60
2018,10,20,01,35,7.60
2018,10,20,01,36,7.60
2018,10,20,01,37,7.60
2018,10,20,01,38,7.60
2018,10,20,01,39,7.60
2018,10,20,01,40,7.60
2018,10,20,01,41,7.50
2018,10,20,01,42,7.50
2018,10,20,01,43,7.50
2018,10,20,01,44,7.50
2018,10,20,01,45,7.50
2018,10,20,01,46,7.50
2018,10,20,01,47,7.50
2018,10,20,01,48,7.50
2018,10,20,01,49,7.50
2018,10,20,01,50,7.40
2018,10,20,01,51,7.40
2018,10,20,01,52,7.40
2018,10,20,01,53,7.40
2018,10,20,01,54,7.40
2018,10,20,01,55,7.40
2018,10,20,01,56,7.40
2018,10,20,01,57,7.40
2018,10,20,01,58,7.40
2018,10,20,01,59,7.40
2018,10,20,02,00,7.40
2018,10,20,02,01,7.40
2018,10,20,02,02,7.40
2018,10,20,02,03,7.40
2018,10,20,02,04,7.50
2018,10,20,02,05,7.50
2018,10,20,02,06,7.40
2018,10,20,02,07,7.40
2018,10,20,02,08,7.40
2018,10,20,02,09,7.40
2018,10,20,02,10,7.40
2018,10,20,02,11,7.40
2018,10,20,02,12,7.40
2018,10,20,02,13,7.40
2018,10,20,02,14,7.30
2018,10,20,02,15,7.30
2018,10,20,02,16,7.30
2018,10,20,02,17,7.30
2018,10,20,02,18,7.30
2018,10,20,02,19,7.30
2018,10,20,02,20,7.30
2018,10,20,02,21,7.30
2018,10,20,02,22,7.30
2018,10,20,02,23,7.30
2018,10,20,02,24,7.30
2018,10,20,02,25,7.30
2018,10,20,02,26,7.30
2018,10,20,02,27,7.30
2018,10,20,02,28,7.30
2018,10,20,02,29,7.20
2018,10,20,02,30,7.20
2018,10,20,02,31,7.20
2018,10,20,02,32,7.20
2018,10,20,02,33,7.30
2018,10,20,02,34,7.30
2018,10,20,02,35,7.30
2018,10,20,02,36,7.30
2018,10,20,02,37,7.30
2018,10,20,02,38,7.30
2018,10,20,02,39,7.30
2018,10,20,02,40,7.30
2018,10,20,02,41,7.30
2018,10,20,02,42,7.30
2018,10,20,02,43,7.20
2018,10,20,02,44,7.20
2018,10,20,02,45,7.20
2018,10,20,02,46,7.20
2018,10,20,02,47,7.10
2018,10,20,02,48,7.10
2018,10,20,02,49,7.10
2018,10,20,02,50,7.10
2018,10,20,02,51,7.10
2018,10,20,02,52,7.00
2018,10,20,02,53,7.00
2018,10,20,02,54,7.00
2018,10,20,02,55,7.00
2018,10,20,02,56,7.00
2018,10,20,02,57,7.00
2018,10,20,02,58,7.00
2018,10,20,02,59,7.00
2018,10,20,03,00,7.00
2018,10,20,03,01,7.00
2018,10,20,03,02,7.00
2018,10,20,03,03,7.00
2018,10,20,03,04,7.00
2018,10,20,03,05,7.00
2018,10,20,03,06,7.00
2018,10,20,03,07,7.00
2018,10,20,03,08,6.90
2018,10,20,03,09,6.90
2018,10,20,03,10,6.90
2018,10,20,03,11,6.90
2018,10,20,03,12,6.90
2018,10,20,03,13,6.90
2018,10,20,03,14,6.90
2018,10,20,03,15,6.90
2018,10,20,03,16,6.90
2018,10,20,03,17,6.90
2018,10,20,03,18,6.90
2018,10,20,03,19,6.80
2018,10,20,03,20,6.80
2018,10,20,03,21,6.80
2018,10,20,03,22,6.80
2018,10,20,03,23,6.80
2018,10,20,03,24,6.80
2018,10,20,03,25,6.80
2018,10,20,03,26,6.80
2018,10,20,03,27,6.80
2018,10,20,03,28,6.80
2018,10,20,03,29,6.80
2018,10,20,03,30,6.80
2018,10,20,03,31,6.80
2018,10,20,03,32,6.70
2018,10,20,03,33,6.70
2018,10,20,03,34,6.70
2018,10,20,03,35,6.70
2018,10,20,03,36,6.70
2018,10,20,03,37,6.70
2018,10,20,03,38,6.60
2018,10,20,03,39,6.60
2018,10,20,03,40,6.60
2018,10,20,03,41,6.60
2018,10,20,03,42,6.50
2018,10,20,03,43,6.50
2018,10,20,03,44,6.50
2018,10,20,03,45,6.50
2018,10,20,03,46,6.50
2018,10,20,03,47,6.40
2018,10,20,03,48,6.40
2018,10,20,03,49,6.40
2018,10,20,03,50,6.40
2018,10,20,03,51,6.40
2018,10,20,03,52,6.30
2018,10,20,03,53,6.30
2018,10,20,03,54,6.30
2018,10,20,03,55,6.30
2018,10,20,03,56,6.30
2018,10,20,03,57,6.20
2018,10,20,03,58,6.20
2018,10,20,03,59,6.20
2018,10,20,04,00,6.20
2018,10,20,04,01,6.20
2018,10,20,04,02,6.20
2018,10,20,04,03,6.20
2018,10,20,04,04,6.10
2018,10,20,04,05,6.10
2018,10,20,04,06,6.10
2018,10,20,04,07,6.10
2018,10,20,04,08,6.10
2018,10,20,04,09,6.10
2018,10,20,04,10,6.10
2018,10,20,04,11,6.10
2018,10,20,04,12,6.10
2018,10,20,04,13,6.10
2018,10,20,04,14,6.10
2018,10,20,04,15,6.10
2018,10,20,04,16,6.10
2018,10,20,04,17,6.10
2018,10,20,04,18,6.10
2018,10,20,04,19,6.10
2018,10,20,04,20,6.10
2018,10,20,04,21,6.10
2018,10,20,04,22,6.10
2018,10,20,04,23,6.10
2018,10,20,04,24,6.10
2018,10,20,04,25,6.10
2018,10,20,04,26,6.10
2018,10,20,08,23,6.70
2018,10,20,08,24,6.70
2018,10,20,08,25,6.70
2018,10,20,08,26,6.70
2018,10,20,08,27,6.70
2018,10,20,08,28,6.80
2018,10,20,08,29,6.80
2018,10,20,08,30,6.80
2018,10,20,08,31,6.80
2018,10,20,08,32,6.80
2018,10,20,08,33,6.80
2018,10,20,08,34,6.80
2018,10,20,08,35,6.80
2018,10,20,08,36,6.80
2018,10,20,08,37,6.90
2018,10,20,08,38,6.90
2018,10,20,08,39,6.90
2018,10,20,08,40,6.90
2018,10,20,08,41,6.90
2018,10,20,08,42,6.90
2018,10,20,08,43,6.90
2018,10,20,08,44,6.90
2018,10,20,08,45,6.90
2018,10,20,08,46,6.90
2018,10,20,08,47,6.90
2018,10,20,08,48,6.90
2018,10,20,08,49,6.90
2018,10,20,08,50,6.80
2018,10,20,08,51,6.80
2018,10,20,08,52,6.80
2018,10,20,08,53,6.80
2018,10,20,08,54,6.80
2018,10,20,08,55,6.80
2018,10,20,08,56,6.90
2018,10,20,08,57,6.90
2018,10,20,08,58,6.90
2018,10,20,08,59,6.90
2018,10,20,09,00,7.00
2018,10,20,09,01,7.00
2018,10,20,09,02,7.00
2018,10,20,09,03,7.00
2018,10,20,09,04,7.00
2018,10,20,09,05,7.00
2018,10,20,09,06,7.00
2018,10,20,09,07,7.00
2018,10,20,09,08,7.00
2018,10,20,09,09,7.00
2018,10,20,09,10,7.00
2018,10,20,09,11,7.00
2018,10,20,09,12,7.00
2018,10,20,09,13,7.00
2018,10,20,09,14,7.10
2018,10,20,09,15,7.10
2018,10,20,09,16,7.10
2018,10,20,09,17,7.10
2018,10,20,09,18,7.10
2018,10,20,09,19,7.20
2018,10,20,09,20,7.20
2018,10,20,09,21,7.20
2018,10,20,09,22,7.20
2018,10,20,09,23,7.20
2018,10,20,09,24,7.20
2018,10,20,09,25,7.30
2018,10,20,09,26,7.30
2018,10,20,09,27,7.30
2018,10,20,09,28,7.30
2018,10,20,09,29,7.40
2018,10,20,09,30,7.40
2018,10,20,09,31,7.40
2018,10,20,09,32,7.40
2018,10,20,09,33,7.50
2018,10,20,09,34,7.50
2018,10,20,09,35,7.60
2018,10,20,09,36,7.60
2018,10,20,09,37,7.60
2018,10,20,09,38,7.70
2018,10,20,09,39,7.70
2018,10,20,09,40,7.70
2018,10,20,09,41,7.80
2018,10,20,09,42,7.80
2018,10,20,09,43,7.80
2018,10,20,09,44,7.80
2018,10,20,09,45,7.90
2018,10,20,09,46,7.90
2018,10,20,09,47,7.90
2018,10,20,09,48,8.00
2018,10,20,09,49,8.00
2018,10,20,09,50,8.00
2018,10,20,09,51,8.10
2018,10,20,09,52,8.10
2018,10,20,09,53,8.10
2018,10,20,09,54,8.20
2018,10,20,09,55,8.20
2018,10,20,09,56,8.30
2018,10,20,09,57,8.30
2018,10,20,09,58,8.30
2018,10,20,09,59,8.40
2018,10,20,10,00,8.40
2018,10,20,10,01,8.40
2018,10,20,10,02,8.50
2018,10,20,10,03,8.60
2018,10,20,10,04,8.60
2018,10,20,10,05,8.60
2018,10,20,10,06,8.70
2018,10,20,10,07,8.70
2018,10,20,10,08,8.80
2018,10,20,10,09,8.80
2018,10,20,10,10,8.80
2018,10,20,10,11,8.90
2018,10,20,10,12,9.00
2018,10,20,10,13,9.00
2018,10,20,10,14,9.10
2018,10,20,10,15,9.10
2018,10,20,10,16,9.20
2018,10,20,10,17,9.30
2018,10,20,10,18,9.30
2018,10,20,10,19,9.40
2018,10,20,10,20,9.50
2018,10,20,10,21,9.60
2018,10,20,10,22,9.60
2018,10,20,10,23,9.60
2018,10,20,10,24,9.70
2018,10,20,10,25,9.70
2018,10,20,10,26,9.80
2018,10,20,10,27,9.80
2018,10,20,10,28,9.80
2018,10,20,10,29,9.80
2018,10,20,10,30,9.80
2018,10,20,10,31,9.90
2018,10,20,10,32,9.90
2018,10,20,10,33,9.90
2018,10,20,10,34,9.90
2018,10,20,10,35,9.90
2018,10,20,10,36,10.00
2018,10,20,10,37,10.00
2018,10,20,10,38,10.00
2018,10,20,10,39,10.00
2018,10,20,10,40,10.00
2018,10,20,10,41,10.10
2018,10,20,10,42,10.10
2018,10,20,10,43,10.10
2018,10,20,10,44,10.10
2018,10,20,10,45,10.10
2018,10,20,10,46,10.10
2018,10,20,10,47,10.10
2018,10,20,10,48,10.10
2018,10,20,10,49,10.10
2018,10,20,10,50,10.10
2018,10,20,10,51,10.10
2018,10,20,10,52,10.10
2018,10,20,10,53,10.10
2018,10,20,10,54,10.10
2018,10,20,10,55,10.10
2018,10,20,10,56,10.10
2018,10,20,10,57,10.20
2018,10,20,10,58,10.20
2018,10,20,10,59,10.20
2018,10,20,11,00,10.20
2018,10,20,11,01,10.20
2018,10,20,11,02,10.20
2018,10,20,11,03,10.20
2018,10,20,11,04,10.20
2018,10,20,11,05,10.30
2018,10,20,11,06,10.30
2018,10,20,11,07,10.30
2018,10,20,11,08,10.30
2018,10,20,11,09,10.30
2018,10,20,11,10,10.30
2018,10,20,11,11,10.30
2018,10,20,11,12,10.30
2018,10,20,11,13,10.40
2018,10,20,11,14,10.40
2018,10,20,11,15,10.40
2018,10,20,11,16,10.40
2018,10,20,11,17,10.40
2018,10,20,11,18,10.40
2018,10,20,11,19,10.50
2018,10,20,11,20,10.50
2018,10,20,11,21,10.50
2018,10,20,11,22,10.60
2018,10,20,11,23,10.60
2018,10,20,11,24,10.60
2018,10,20,11,25,10.60
2018,10,20,11,26,10.70
2018,10,20,11,27,10.70
2018,10,20,11,28,10.70
2018,10,20,11,29,10.70
2018,10,20,11,30,10.70
2018,10,20,11,31,10.70
2018,10,20,11,32,10.70
2018,10,20,11,33,10.70
2018,10,20,11,34,10.80
2018,10,20,11,35,10.80
2018,10,20,11,36,10.80
2018,10,20,11,37,10.80
2018,10,20,11,38,10.70
2018,10,20,11,39,10.70
2018,10,20,11,40,10.80
2018,10,20,11,41,10.80
2018,10,20,11,42,10.80
2018,10,20,11,43,10.80
2018,10,20,11,44,10.80
2018,10,20,11,45,10.80
2018,10,20,11,46,10.80
2018,10,20,11,47,10.90
2018,10,20,11,48,10.90
2018,10,20,11,49,10.90
2018,10,20,11,50,11.00
2018,10,20,11,51,11.00
2018,10,20,11,52,11.00
2018,10,20,11,53,11.00
2018,10,20,11,54,11.10
2018,10,20,11,55,11.10
2018,10,20,11,56,11.10
2018,10,20,11,57,11.10
2018,10,20,11,58,11.10
2018,10,20,11,59,11.10
2018,10,20,12,00,11.10
2018,10,20,12,01,11.10
2018,10,20,12,02,11.10
2018,10,20,12,03,11.10
2018,10,20,12,04,11.10
2018,10,20,12,05,11.10
2018,10,20,12,06,11.20
2018,10,20,12,07,11.20
2018,10,20,12,08,11.20
2018,10,20,12,09,11.20
2018,10,20,12,10,11.20
2018,10,20,12,11,11.20
2018,10,20,12,12,11.30
2018,10,20,12,13,11.30
2018,10,20,12,14,11.30
2018,10,20,12,15,11.30
2018,10,20,12,16,11.30
2018,10,20,12,17,11.30
2018,10,20,12,18,11.30
2018,10,20,12,19,11.40
2018,10,20,12,20,11.40
2018,10,20,12,21,11.40
2018,10,20,12,22,11.50
2018,10,20,12,23,11.50
2018,10,20,12,24,11.50
2018,10,20,12,25,11.60
2018,10,20,12,26,11.60
2018,10,20,12,27,11.60
2018,10,20,12,28,11.70
2018,10,20,12,29,11.70
2018,10,20,12,30,11.70
2018,10,20,12,31,11.70
2018,10,20,12,32,11.70
2018,10,20,12,33,11.70
2018,10,20,12,34,11.80
2018,10,20,12,35,11.80
2018,10,20,12,36,11.80
2018,10,20,12,37,11.80
2018,10,20,12,38,11.80
2018,10,20,12,39,11.80
2018,10,20,12,40,11.80
2018,10,20,12,41,11.90
2018,10,20,12,42,11.90
2018,10,20,12,43,11.90
2018,10,20,12,44,11.90
2018,10,20,12,45,11.90
2018,10,20,12,46,12.00
2018,10,20,12,47,12.00
2018,10,20,12,48,12.00
2018,10,20,12,49,12.10
2018,10,20,12,50,12.10
2018,10,20,12,51,12.20
2018,10,20,12,52,12.20
2018,10,20,12,53,12.20
2018,10,20,12,54,12.30
2018,10,20,12,55,12.30
2018,10,20,12,56,12.40
2018,10,20,12,57,12.40
2018,10,20,12,58,12.50
2018,10,20,12,59,12.60
2018,10,20,13,00,12.60
2018,10,20,13,01,12.70
2018,10,20,13,02,12.70
2018,10,20,13,03,12.70
2018,10,20,13,04,12.70
2018,10,20,13,05,12.80
2018,10,20,13,06,12.80
2018,10,20,13,07,12.90
2018,10,20,13,08,12.90
2018,10,20,13,09,13.00
2018,10,20,13,10,13.00
2018,10,20,13,11,13.00
2018,10,20,13,12,13.10
2018,10,20,13,13,13.10
2018,10,20,13,14,13.10
2018,10,20,13,15,13.10
2018,10,20,13,16,13.20
2018,10,20,13,17,13.20
2018,10,20,13,18,13.20
2018,10,20,13,19,13.30
2018,10,20,13,20,13.30
2018,10,20,13,21,13.30
2018,10,20,13,22,13.30
2018,10,20,13,23,13.40
2018,10,20,13,24,13.40
2018,10,20,13,25,13.50
2018,10,20,13,26,13.50
2018,10,20,13,27,13.50
2018,10,20,13,28,13.60
2018,10,20,13,29,13.60
2018,10,20,13,30,13.60
2018,10,20,13,31,13.60
2018,10,20,13,32,13.70
2018,10,20,13,33,13.70
2018,10,20,13,34,13.70
2018,10,20,13,35,13.70
2018,10,20,13,36,13.70
2018,10,20,13,37,13.70
2018,10,20,13,38,13.80
2018,10,20,13,39,13.80
2018,10,20,13,40,13.80
2018,10,20,13,41,13.80
2018,10,20,13,42,13.80
2018,10,20,13,43,13.80
2018,10,20,13,44,13.80
2018,10,20,13,45,13.80
2018,10,20,13,46,13.90
2018,10,20,13,47,13.90
2018,10,20,13,48,13.90
2018,10,20,13,49,13.90
2018,10,20,13,50,13.90
2018,10,20,13,51,13.90
2018,10,20,13,52,13.90
2018,10,20,13,53,14.00
2018,10,20,13,54,14.00
2018,10,20,13,55,14.00
2018,10,20,13,56,14.10
2018,10,20,13,57,14.10
2018,10,20,13,58,14.20
2018,10,20,13,59,14.20
2018,10,20,14,00,14.20
2018,10,20,14,01,14.20
2018,10,20,14,02,14.30
2018,10,20,14,03,14.30
2018,10,20,14,04,14.30
2018,10,20,14,05,14.30
2018,10,20,14,06,14.30
2018,10,20,14,07,14.30
2018,10,20,14,08,14.30
2018,10,20,14,09,14.20
2018,10,20,14,10,14.00
2018,10,20,14,11,13.90
2018,10,20,14,12,13.80
2018,10,20,14,13,13.60
2018,10,20,14,14,13.50
2018,10,20,14,15,13.30
2018,10,20,14,16,13.20
2018,10,20,14,17,13.10
2018,10,20,14,18,12.90
2018,10,20,14,19,12.80
2018,10,20,14,20,12.80
2018,10,20,14,21,12.70
2018,10,20,14,22,12.60
2018,10,20,14,23,12.60
2018,10,20,14,24,12.60
2018,10,20,14,25,12.50
2018,10,20,14,26,12.40
2018,10,20,14,27,12.40
2018,10,20,14,28,12.30
2018,10,20,14,29,12.30
2018,10,20,14,30,12.30
2018,10,20,14,31,12.30
2018,10,20,14,32,12.30
2018,10,20,14,33,12.30
2018,10,20,14,34,12.30
2018,10,20,14,35,12.30
2018,10,20,14,36,12.30
2018,10,20,14,37,12.30
2018,10,20,14,38,12.40
2018,10,20,14,39,12.40
2018,10,20,14,40,12.40
2018,10,20,14,41,12.30
2018,10,20,14,42,12.30
2018,10,20,14,43,12.30
2018,10,20,14,44,12.30
2018,10,20,14,45,12.30
2018,10,20,14,46,12.30
2018,10,20,14,47,12.30
2018,10,20,14,48,12.30
2018,10,20,14,49,12.30
2018,10,20,14,50,12.30
2018,10,20,14,51,12.30
2018,10,20,14,52,12.30
2018,10,20,14,53,12.30
2018,10,20,14,54,12.30
2018,10,20,14,55,12.30
2018,10,20,14,56,12.30
2018,10,20,14,57,12.20
2018,10,20,14,58,12.20
2018,10,20,14,59,12.20
2018,10,20,15,00,12.10
2018,10,20,15,01,12.10
2018,10,20,15,02,12.10
2018,10,20,15,03,12.00
2018,10,20,15,04,12.00
2018,10,20,15,05,12.00
2018,10,20,15,06,12.00
2018,10,20,15,07,11.90
2018,10,20,15,08,11.90
2018,10,20,15,09,11.90
2018,10,20,15,10,11.90
2018,10,20,15,11,11.90
2018,10,20,15,12,11.90
2018,10,20,15,13,11.90
2018,10,20,15,14,11.90
2018,10,20,15,15,11.80
2018,10,20,15,16,11.80
2018,10,20,15,17,11.80
2018,10,20,15,18,11.80
2018,10,20,15,19,11.80
2018,10,20,15,20,11.80
2018,10,20,15,21,11.80
2018,10,20,15,22,11.80
2018,10,20,15,23,11.80
2018,10,20,15,24,11.80
2018,10,20,15,25,11.80
2018,10,20,15,26,11.80
2018,10,20,15,27,11.80
2018,10,20,15,28,11.80
2018,10,20,15,29,11.80
2018,10,20,15,30,11.80
2018,10,20,15,31,11.80
2018,10,20,15,32,11.80
2018,10,20,15,33,11.80
2018,10,20,15,34,11.90
2018,10,20,15,35,11.90
2018,10,20,15,36,11.90
2018,10,20,15,37,11.90
2018,10,20,15,38,11.90
2018,10,20,15,39,11.90
2018,10,20,15,40,11.90
2018,10,20,15,41,11.90
2018,10,20,15,42,11.90
2018,10,20,15,43,11.90
2018,10,20,15,44,11.90
2018,10,20,15,45,11.90
2018,10,20,15,46,11.90
2018,10,20,15,47,11.90
2018,10,20,15,48,11.90
2018,10,20,15,49,11.90
2018,10,20,15,50,12.00
2018,10,20,15,51,12.00
2018,10,20,15,52,12.00
2018,10,20,15,53,12.10
2018,10,20,15,54,12.10
2018,10,20,15,55,12.10
2018,10,20,15,56,12.10
2018,10,20,15,57,12.10
2018,10,20,15,58,12.20
2018,10,20,15,59,12.20
2018,10,20,16,00,12.20
2018,10,20,16,01,12.20
2018,10,20,16,02,12.20
2018,10,20,16,03,12.20
2018,10,20,16,04,12.20
2018,10,20,16,05,12.20
2018,10,20,16,06,12.20
2018,10,20,16,07,12.20
2018,10,20,16,08,12.20
2018,10,20,16,09,12.20
2018,10,20,16,10,12.20
2018,10,20,16,11,12.30
2018,10,20,16,12,12.30
2018,10,20,16,13,12.30
2018,10,20,16,14,12.30
2018,10,20,16,15,12.30
2018,10,20,16,16,12.30
2018,10,20,16,17,12.30
2018,10,20,16,18,12.30
2018,10,20,16,19,12.30
2018,10,20,16,20,12.30
2018,10,20,16,21,12.30
2018,10,20,16,22,12.20
2018,10,20,16,23,12.20
2018,10,20,16,24,12.20
2018,10,20,16,25,12.20
2018,10,20,16,26,12.10
2018,10,20,16,27,12.10
2018,10,20,16,28,12.10
2018,10,20,16,29,12.10
2018,10,20,16,30,12.10
2018,10,20,16,31,12.00
2018,10,20,16,32,12.00
2018,10,20,16,33,11.90
2018,10,20,16,34,11.90
2018,10,20,16,35,11.90
2018,10,20,16,36,11.90
2018,10,20,16,37,11.90
2018,10,20,16,38,11.80
2018,10,20,16,39,11.80
2018,10,20,16,40,11.80
2018,10,20,16,41,11.80
2018,10,20,16,42,11.70
2018,10,20,16,43,11.70
2018,10,20,16,44,11.70
2018,10,20,16,45,11.70
2018,10,20,16,46,11.60
2018,10,20,16,47,11.60
2018,10,20,16,48,11.60
2018,10,20,16,49,11.60
2018,10,20,16,50,11.60
2018,10,20,16,51,11.60
2018,10,20,16,52,11.60
2018,10,20,16,53,11.60
2018,10,20,16,54,11.60
2018,10,20,16,55,11.60
2018,10,20,16,56,11.50
2018,10,20,16,57,11.50
2018,10,20,16,58,11.50
2018,10,20,16,59,11.50
2018,10,20,17,00,11.50
2018,10,20,17,01,11.50
2018,10,20,17,02,11.50
2018,10,20,17,03,11.40
2018,10,20,17,04,11.50
2018,10,20,17,05,11.50
2018,10,20,17,06,11.50
2018,10,20,17,07,11.50
2018,10,20,17,08,11.50
2018,10,20,17,09,11.50
2018,10,20,17,10,11.50
2018,10,20,17,11,11.50
2018,10,20,17,12,11.60
2018,10,20,17,13,11.60
2018,10,20,17,14,11.60
2018,10,20,17,15,11.70
2018,10,20,17,16,11.70
2018,10,20,17,17,11.70
2018,10,20,17,18,11.70
2018,10,20,17,19,11.70
2018,10,20,17,20,11.70
2018,10,20,17,21,11.70
2018,10,20,17,22,11.70
2018,10,20,17,23,11.70
2018,10,20,17,24,11.70
2018,10,20,17,25,11.70
2018,10,20,17,26,11.70
2018,10,20,17,27,11.70
2018,10,20,17,28,11.70
2018,10,20,17,29,11.70
2018,10,20,17,30,11.80
2018,10,20,17,31,11.80
2018,10,20,17,32,11.80
2018,10,20,17,33,11.80
2018,10,20,17,34,11.80
2018,10,20,17,35,11.80
2018,10,20,17,36,11.80
2018,10,20,17,37,11.80
2018,10,20,17,38,11.80
2018,10,20,17,39,11.70
2018,10,20,17,40,11.70
2018,10,20,17,41,11.70
2018,10,20,17,42,11.70
2018,10,20,17,43,11.70
2018,10,20,17,44,11.70
2018,10,20,17,45,11.70
2018,10,20,17,46,11.70
2018,10,20,17,47,11.70
2018,10,20,17,48,11.70
2018,10,20,17,49,11.60
2018,10,20,17,50,11.60
2018,10,20,17,51,11.60
2018,10,20,17,52,11.60
2018,10,20,17,53,11.60
2018,10,20,17,54,11.60
2018,10,20,17,55,11.60
2018,10,20,17,56,11.60
2018,10,20,17,57,11.60
2018,10,20,17,58,11.60
2018,10,20,17,59,11.60
2018,10,20,18,00,11.60
2018,10,20,18,01,11.60
2018,10,20,18,02,11.50
2018,10,20,18,03,11.50
2018,10,20,18,04,11.50
2018,10,20,18,05,11.50
2018,10,20,18,06,11.50
2018,10,20,18,07,11.50
2018,10,20,18,08,11.50
2018,10,20,18,09,11.50
2018,10,20,18,10,11.50
2018,10,20,18,11,11.40
2018,10,20,18,12,11.40
2018,10,20,18,13,11.40
2018,10,20,18,14,11.40
2018,10,20,18,15,11.40
2018,10,20,18,16,11.40
2018,10,20,18,17,11.40
2018,10,20,18,18,11.40
2018,10,20,18,19,11.40
2018,10,20,18,20,11.40
2018,10,20,18,21,11.40
2018,10,20,18,22,11.40
2018,10,20,18,23,11.40
2018,10,20,18,24,11.40
2018,10,20,18,25,11.40
2018,10,20,18,26,11.30
2018,10,20,18,27,11.30
2018,10,20,18,28,11.30
2018,10,20,18,29,11.30
2018,10,20,18,30,11.30
2018,10,20,18,31,11.30
2018,10,20,18,32,11.30
2018,10,20,18,33,11.30
2018,10,20,18,34,11.30
2018,10,20,18,35,11.30
2018,10,20,18,36,11.20
2018,10,20,18,37,11.20
2018,10,20,18,38,11.20
2018,10,20,18,39,11.20
2018,10,20,18,40,11.20
2018,10,20,18,41,11.20
2018,10,20,18,42,11.20
2018,10,20,18,43,11.20
2018,10,20,18,44,11.20
2018,10,20,18,45,11.20
2018,10,20,18,46,11.20
2018,10,20,18,47,11.10
2018,10,20,18,48,11.10
2018,10,20,18,49,11.10
2018,10,20,18,50,11.10
2018,10,20,18,51,11.10
2018,10,20,18,52,11.10
2018,10,20,18,53,11.10
2018,10,20,18,54,11.10
2018,10,20,18,55,11.10
2018,10,20,18,56,11.10
2018,10,20,18,57,11.00
2018,10,20,18,58,11.00
2018,10,20,18,59,11.00
2018,10,20,19,00,11.00
2018,10,20,19,01,11.00
2018,10,20,19,02,10.90
2018,10,20,19,03,10.90
2018,10,20,19,04,10.90
2018,10,20,19,05,10.90
2018,10,20,19,06,10.90
2018,10,20,19,07,10.90
2018,10,20,19,08,10.80
2018,10,20,19,09,10.80
2018,10,20,19,10,10.80
2018,10,20,19,11,10.80
2018,10,20,19,12,10.80
2018,10,20,19,13,10.80
2018,10,20,19,14,10.70
2018,10,20,19,15,10.70
2018,10,20,19,16,10.70
2018,10,20,19,17,10.70
2018,10,20,19,18,10.70
2018,10,20,19,19,10.70
2018,10,20,19,20,10.60
2018,10,20,19,21,10.60
2018,10,20,19,22,10.60
2018,10,20,19,23,10.60
2018,10,20,19,24,10.60
2018,10,20,19,25,10.60
2018,10,20,19,26,10.60
2018,10,20,19,27,10.60
2018,10,20,19,28,10.50
2018,10,20,19,29,10.50
2018,10,20,19,30,10.50
2018,10,20,19,31,10.40
2018,10,20,19,32,10.40
2018,10,20,19,33,10.40
2018,10,20,19,34,10.40
2018,10,20,19,35,10.40
2018,10,20,19,36,10.40
2018,10,20,19,37,10.40
2018,10,20,19,38,10.40
2018,10,20,19,39,10.30
2018,10,20,19,40,10.30
2018,10,20,19,41,10.30
2018,10,20,19,42,10.30
2018,10,20,19,43,10.30
2018,10,20,19,44,10.30
2018,10,20,19,45,10.30
2018,10,20,19,46,10.30
2018,10,20,19,47,10.30
2018,10,20,19,48,10.30
2018,10,20,19,49,10.20
2018,10,20,19,50,10.20
2018,10,20,19,51,10.20
2018,10,20,19,52,10.20
2018,10,20,19,53,10.20
2018,10,20,19,54,10.20
2018,10,20,19,55,10.20
2018,10,20,19,56,10.10
2018,10,20,19,57,10.10
2018,10,20,19,58,10.10
2018,10,20,19,59,10.10
2018,10,20,20,00,10.10
2018,10,20,20,01,10.10
2018,10,20,20,02,10.00
2018,10,20,20,03,10.00
2018,10,20,20,04,10.00
2018,10,20,20,05,10.00
2018,10,20,20,06,10.00
2018,10,20,20,07,10.00
2018,10,20,20,08,10.00
2018,10,20,20,09,10.00
2018,10,20,20,10,10.00
2018,10,20,20,11,9.90
2018,10,20,20,12,9.90
2018,10,20,20,13,9.90
2018,10,20,20,14,9.90
2018,10,20,20,15,9.90
2018,10,20,20,16,9.90
2018,10,20,20,17,9.90
2018,10,20,20,18,9.90
2018,10,20,20,19,9.90
2018,10,20,20,20,9.90
2018,10,20,20,21,9.90
2018,10,20,20,22,9.90
2018,10,20,20,23,9.90
2018,10,20,20,24,9.90
2018,10,20,20,25,9.90
2018,10,20,20,26,9.90
2018,10,20,20,27,9.90
2018,10,20,20,28,9.80
2018,10,20,20,29,9.80
2018,10,20,20,30,9.80
2018,10,20,20,31,9.80
2018,10,20,20,32,9.80
2018,10,20,20,33,9.80
2018,10,20,20,34,9.70
2018,10,20,20,35,9.70
2018,10,20,20,36,9.70
2018,10,20,20,37,9.70
2018,10,20,20,38,9.70
2018,10,20,20,39,9.70
2018,10,20,20,40,9.70
2018,10,20,20,41,9.70
2018,10,20,20,42,9.70
2018,10,20,20,43,9.70
2018,10,20,20,44,9.70
2018,10,20,20,45,9.70
2018,10,20,20,46,9.70
2018,10,20,20,47,9.70
2018,10,20,20,48,9.70
2018,10,20,20,49,9.70
2018,10,20,20,50,9.70
2018,10,20,20,51,9.70
2018,10,20,20,52,9.70
2018,10,20,20,53,9.70
2018,10,20,20,54,9.70
2018,10,20,20,55,9.70
2018,10,20,20,56,9.60
2018,10,20,20,57,9.60
2018,10,20,20,58,9.60
2018,10,20,20,59,9.60
2018,10,20,21,00,9.60
2018,10,20,21,01,9.60
2018,10,20,21,02,9.60
2018,10,20,21,03,9.60
2018,10,20,21,04,9.50
2018,10,20,21,05,9.50
2018,10,20,21,06,9.50
2018,10,20,21,07,9.50
2018,10,20,21,08,9.50
2018,10,20,21,09,9.40
2018,10,20,21,10,9.40
2018,10,20,21,11,9.40
2018,10,20,21,12,9.40
2018,10,20,21,13,9.40
2018,10,20,21,14,9.40
2018,10,20,21,15,9.30
2018,10,20,21,16,9.30
2018,10,20,21,17,9.30
2018,10,20,21,18,9.30
2018,10,20,21,19,9.30
2018,10,20,21,20,9.30
2018,10,20,21,21,9.30
2018,10,20,21,22,9.30
2018,10,20,21,23,9.30
2018,10,20,21,24,9.30
2018,10,20,21,25,9.30
2018,10,20,21,26,9.30
2018,10,20,21,27,9.30
2018,10,20,21,28,9.20
2018,10,20,21,29,9.20
2018,10,20,21,30,9.20
2018,10,20,21,31,9.20
2018,10,20,21,32,9.20
2018,10,20,21,33,9.20
2018,10,20,21,34,9.20
2018,10,20,21,35,9.20
2018,10,20,21,36,9.20